Theta_e
328 326 326 327 327 325 323 324 327 328 329 328 325 325 323 319 318 320 320 319 315 311 306 302 301 302 302 303 304 305 304 305 305 306 307 307 307 307 307 307 307 307 307 307 307 307 307 307 307 307 307 307 308 309 309 308 310 314 316 316 315 314 313 313 312 313 313 313 313 314 315 315 315 316 315 315 314 314 316 317 318 318 318 319 319
329 326 326 327 327 327 325 325 328 330 330 326 324 325 324 321 321 322 321 319 318 315 311 306 302 301 301 302 303 304 304 304 304 305 306 307 307 307 307 307 307 307 307 307 307 307 307 306 307 307 307 306 308 310 308 307 311 315 316 315 314 313 313 313 313 313 313 313 313 312 315 315 315 315 315 316 315 314 316 318 319 319 319 319 319
328 328 325 325 329 331 326 324 325 330 331 327 325 326 325 323 323 323 321 319 319 318 315 311 306 302 301 301 302 303 304 304 304 304 305 306 306 307 307 307 306 306 306 306 306 306 306 306 306 306 306 305 308 312 309 306 311 316 316 314 314 314 314 313 313 313 312 312 312 312 314 314 314 315 314 315 315 314 315 316 317 318 319 319 319
329 331 327 323 327 329 326 324 325 326 326 325 325 325 325 324 323 323 321 320 320 319 317 315 311 306 302 301 301 302 303 304 304 304 304 304 305 306 306 306 306 306 306 306 306 306 306 306 306 306 306 305 307 311 311 311 313 315 314 314 315 315 314 314 313 313 310 310 311 311 312 313 313 313 313 313 314 314 314 314 315 316 318 318 318
328 328 326 324 325 326 326 324 326 327 327 327 325 325 325 324 323 322 321 320 321 321 319 317 314 310 305 302 301 301 301 302 303 304 303 304 304 305 306 306 306 306 306 305 305 305 305 305 305 305 306 305 305 307 308 313 315 315 315 315 315 314 314 314 313 311 310 309 310 310 311 312 313 312 312 312 312 312 312 313 314 315 316 316 316
326 326 326 325 323 323 324 323 324 325 326 326 325 325 325 324 324 323 321 321 321 321 321 319 317 313 307 303 301 300 300 301 302 303 303 303 303 304 304 305 305 305 305 305 305 305 305 304 305 305 305 305 305 305 304 307 311 314 316 316 314 315 315 314 313 312 310 309 308 308 310 311 312 311 311 311 310 311 311 311 312 313 314 314 315
324 324 325 326 325 325 325 325 324 324 324 324 325 325 324 324 323 322 321 321 322 321 320 320 319 317 314 309 304 302 300 300 300 301 302 303 303 303 303 303 304 305 305 305 305 304 304 304 304 304 304 304 304 305 304 304 305 310 315 317 315 315 315 314 314 313 311 309 308 306 308 310 310 310 311 311 310 310 310 310 311 311 312 312 313
324 324 324 325 326 326 326 326 326 325 325 325 324 324 323 324 324 323 322 321 322 321 319 319 319 319 319 316 312 307 304 301 300 300 300 301 302 302 303 303 303 303 304 304 304 304 304 304 304 304 303 304 304 303 304 304 303 305 310 315 316 316 316 315 314 313 312 310 309 306 306 309 310 311 311 311 310 309 309 310 310 310 310 311 311
326 326 327 326 326 326 326 326 326 325 326 326 325 325 325 326 326 325 323 323 322 321 319 318 317 318 319 319 317 314 311 308 304 302 300 299 300 301 302 302 302 302 303 303 303 303 303 303 303 303 303 303 303 303 303 303 303 303 305 310 315 317 317 316 314 314 313 311 309 307 306 307 309 310 310 309 310 309 309 309 308 309 309 309 310
325 326 327 327 326 326 326 326 325 324 324 325 325 325 324 324 324 324 324 324 323 321 319 318 318 317 317 317 317 317 316 314 311 308 305 302 300 300 300 301 301 302 302 302 302 303 303 303 303 303 303 303 302 303 303 303 303 303 303 306 312 316 316 315 314 314 313 311 311 308 306 305 306 308 308 308 309 309 308 308 307 307 308 308 308
324 324 325 325 324 324 324 324 323 323 324 324 323 323 323 323 322 323 323 322 322 321 320 320 319 318 317 317 316 316 316 316 315 313 311 308 305 302 300 299 300 300 301 301 302 302 302 302 302 302 302 302 302 302 302 302 302 302 302 303 307 312 314 314 313 313 312 311 311 309 306 305 305 306 307 308 308 308 307 306 306 307 308 309 309
324 324 324 323 323 323 322 322 322 323 323 323 323 323 322 322 322 321 321 320 320 320 319 319 319 318 318 317 316 316 315 315 315 315 314 313 311 308 304 302 300 299 299 300 300 301 301 301 301 302 302 302 302 302 302 302 302 302 302 302 303 308 312 314 313 313 312 311 311 309 308 306 306 307 308 308 307 307 306 305 306 308 308 309 309
323 323 322 321 321 321 321 322 322 322 322 322 322 321 321 321 321 321 320 319 319 318 318 318 318 317 317 316 316 316 315 315 314 314 314 314 313 312 310 306 303 301 299 299 299 299 300 301 301 301 301 301 301 301 301 301 301 302 302 301 301 303 307 311 313 313 311 311 311 310 309 308 307 308 308 308 307 306 306 306 306 307 308 309 309
320 320 321 320 320 321 320 320 320 319 319 319 319 319 319 320 320 320 319 319 318 317 317 317 316 316 315 315 315 314 314 314 313 313 313 313 313 313 312 311 308 305 301 299 298 298 298 299 300 300 300 300 301 301 301 301 301 301 301 301 301 301 302 305 310 312 312 311 311 310 309 308 308 308 307 307 307 306 306 306 306 306 306 307 308
314 316 317 318 318 319 319 318 318 317 317 317 317 317 317 318 318 317 317 317 316 316 315 315 315 315 314 312 311 312 313 312 312 312 312 312 311 311 312 311 310 306 302 300 299 298 298 298 298 299 299 299 300 300 300 301 301 301 301 301 301 301 301 301 305 309 312 311 311 310 309 309 308 307 307 307 306 306 307 307 306 305 304 305 306
308 309 310 311 312 313 313 313 313 314 314 313 313 314 314 314 314 314 314 315 315 314 315 314 314 314 312 311 310 310 310 310 310 310 311 310 311 311 310 310 308 306 303 302 300 298 297 297 298 298 298 298 298 299 299 300 300 300 300 300 300 300 300 300 301 303 308 311 311 310 310 309 309 308 307 307 306 306 307 306 305 305 304 304 304
305 306 306 306 306 306 306 306 306 307 307 307 308 309 310 311 311 311 312 313 313 313 313 313 313 312 311 310 309 307 307 308 308 309 309 309 309 310 310 310 309 308 308 307 305 302 299 298 298 298 298 298 298 298 298 299 299 300 300 300 300 300 300 300 300 300 302 306 309 310 311 311 310 309 307 306 306 306 306 306 306 305 304 304 304
305 305 305 305 305 305 304 304 304 303 303 304 304 305 306 307 308 309 309 310 310 310 311 311 311 311 310 309 307 306 306 306 305 306 308 309 308 308 308 309 309 309 309 309 309 308 305 303 302 301 300 299 298 297 297 298 298 299 299 299 299 300 300 299 299 299 300 302 304 305 308 311 311 310 308 307 307 307 306 306 306 305 304 304 305
304 304 305 305 305 304 304 304 303 303 302 302 302 302 302 303 304 305 307 307 307 307 308 308 309 309 308 308 307 306 305 304 303 303 304 306 307 307 307 307 307 307 308 308 308 309 309 308 307 306 304 303 301 299 298 297 297 298 298 298 299 299 299 299 299 299 299 300 300 300 301 307 311 311 310 309 309 307 306 306 305 304 304 305 306
303 303 303 303 303 303 303 303 303 302 302 301 301 301 300 300 300 301 303 304 305 305 305 305 305 306 306 306 306 306 305 304 304 302 301 302 305 306 305 305 305 305 306 306 306 307 308 308 308 307 307 306 304 302 300 298 297 297 298 298 298 298 298 298 299 299 298 298 298 298 297 300 307 312 311 310 310 308 306 306 305 304 303 304 305
302 302 302 302 302 302 301 301 301 301 301 301 300 300 300 300 299 299 299 300 300 301 302 302 303 303 304 304 304 304 304 304 304 304 302 301 302 304 304 304 304 304 304 304 304 305 306 306 306 307 307 307 306 305 302 300 298 297 297 297 297 298 298 298 298 298 298 298 297 297 296 296 301 308 312 311 310 309 307 306 305 304 303 304 305
300 299 300 299 299 299 299 299 298 298 298 298 298 298 298 298 298 297 297 297 298 298 298 299 300 301 301 301 302 302 302 302 302 302 302 301 301 302 303 303 302 302 302 302 303 303 303 304 304 305 306 306 307 307 306 303 301 298 297 297 297 297 297 298 298 298 298 298 298 297 297 295 295 301 309 312 310 310 308 306 305 305 304 303 304
298 297 297 296 296 295 295 295 294 294 294 294 294 294 293 293 293 293 294 294 294 294 295 296 296 297 298 298 299 299 299 299 300 300 300 300 299 300 301 301 301 301 301 301 301 301 301 301 302 302 303 304 305 306 307 306 305 302 299 297 297 297 297 297 297 298 297 298 298 298 297 296 295 295 302 309 310 310 309 307 305 305 304 304 303
295 295 295 294 293 293 293 292 292 292 292 291 291 291 290 290 290 290 290 290 290 290 291 291 292 292 293 294 295 296 296 297 297 298 298 298 298 298 298 299 299 299 299 299 300 300 300 300 300 301 301 302 303 303 305 306 307 306 303 300 297 297 297 297 297 297 297 297 297 298 297 297 295 294 297 304 309 309 308 307 306 305 305 304 303
293 293 293 293 292 292 292 291 291 291 291 290 290 290 290 290 290 290 289 289 289 289 289 289 289 289 289 289 290 290 291 292 293 294 295 295 296 296 297 297 297 298 298 298 298 298 299 298 299 299 300 300 301 301 302 303 305 306 305 303 300 297 296 297 297 297 297 297 297 297 298 297 296 294 294 299 305 307 307 307 306 305 305 304 303
292 292 291 291 290 290 290 290 290 290 290 290 290 290 290 290 289 289 289 289 289 288 288 288 288 288 288 288 288 288 288 288 288 289 289 290 291 291 292 293 294 294 295 296 297 297 298 298 298 297 298 298 299 300 300 301 302 303 304 304 302 299 297 296 297 297 297 297 297 297 297 297 297 295 294 295 299 302 306 306 305 305 304 304 304
291 290 290 289 289 289 289 289 289 289 289 289 289 289 289 289 289 289 289 289 288 288 288 288 288 288 288 288 288 288 287 287 287 287 287 287 287 287 288 289 289 290 290 291 293 294 295 296 297 297 297 297 298 298 298 299 300 301 302 302 303 301 299 297 296 297 297 297 297 297 297 297 297 296 294 294 295 297 301 305 306 306 305 304 304
290 290 289 289 289 289 289 289 288 288 288 288 288 288 289 288 289 289 289 288 288 288 288 288 288 287 287 287 287 287 287 287 287 287 287 287 287 286 286 286 287 287 287 287 289 290 291 291 293 295 295 295 296 297 297 297 298 299 300 300 301 301 300 298 297 296 296 296 297 297 297 297 297 296 295 294 294 294 295 299 302 303 303 303 303
289 289 289 289 289 289 289 289 289 289 288 288 288 288 288 288 288 288 288 288 288 288 288 288 287 287 287 287 287 287 287 287 287 287 287 287 287 287 286 286 286 286 286 287 287 288 288 288 289 290 291 291 292 293 295 296 297 297 298 298 299 300 300 299 298 296 296 296 296 296 297 297 296 296 295 294 294 294 294 295 296 297 298 299 298
289 289 289 289 289 289 289 289 289 289 289 288 288 288 288 288 288 288 288 288 288 287 287 287 287 287 287 287 287 287 287 287 287 287 287 287 287 287 287 286 286 286 286 286 286 287 288 288 288 288 288 288 289 289 291 292 295 296 297 297 297 298 299 299 298 297 296 296 296 296 296 297 297 296 296 294 294 294 294 294 294 294 294 294 294
288 288 288 288 288 288 288 288 288 288 288 288 288 288 288 288 288 288 288 287 287 287 287 287 287 287 287 287 287 287 287 287 288 287 288 287 287 287 287 287 286 286 286 285 285 286 287 288 288 288 288 288 288 288 288 289 291 293 295 297 297 298 298 299 299 298 297 296 296 296 296 296 296 297 296 295 294 293 293 294 294 294 294 293 293
288 288 288 288 288 288 288 288 288 288 287 287 287 288 288 288 288 287 287 287 287 287 287 287 287 287 287 287 287 287 287 287 288 288 288 288 287 287 287 287 287 286 286 285 284 286 287 287 288 288 288 288 288 288 288 289 289 289 291 294 296 297 298 298 299 299 299 297 296 295 295 296 296 296 296 296 295 294 293 293 293 294 294 294 293
288 288 288 288 288 287 287 287 287 287 287 287 287 287 287 287 287 287 287 287 287 287 287 287 287 287 287 288 288 288 288 288 288 287 287 287 287 287 287 287 287 286 286 285 284 285 286 287 287 288 288 288 288 289 288 288 288 288 289 289 291 294 296 298 298 298 299 299 298 296 295 295 295 295 296 296 296 295 294 293 293 293 293 294 294
288 288 288 288 288 288 287 287 287 287 287 286 286 286 286 286 286 286 286 287 287 287 287 287 287 287 287 287 287 288 288 288 288 287 287 287 287 287 287 287 287 287 286 285 284 284 285 286 286 287 288 288 288 289 288 288 288 288 288 289 289 290 292 294 297 298 298 298 298 298 297 296 295 295 295 295 296 296 296 295 294 294 293 293 293
288 288 288 288 288 288 288 287 287 287 286 286 286 286 286 286 286 286 286 286 286 287 287 287 287 287 287 287 287 287 287 287 287 287 287 287 287 287 287 287 286 287 286 285 285 285 285 285 285 285 287 287 288 288 288 288 288 288 288 288 288 288 289 290 293 296 297 297 297 297 298 297 296 295 295 295 295 295 296 296 295 295 294 292 292
288 288 288 288 288 288 288 287 287 286 286 286 286 286 286 286 286 286 286 286 286 286 286 286 287 287 286 287 287 286 286 286 287 287 287 287 287 286 287 287 286 286 286 286 285 285 285 285 285 285 285 286 287 288 288 288 288 288 288 288 288 288 288 288 289 291 294 297 297 297 297 298 297 296 295 295 295 295 295 295 295 295 295 294 293
288 288 288 288 288 288 287 287 286 286 285 285 285 285 285 285 285 285 285 286 286 286 286 286 286 286 286 286 286 286 286 286 286 286 286 286 286 286 286 286 286 285 285 285 285 285 285 285 286 285 285 285 285 286 287 287 287 288 288 288 288 288 288 288 288 289 290 293 296 297 297 297 297 297 296 295 295 295 295 295 295 295 295 295 294
288 288 288 288 288 287 287 286 285 285 285 285 285 285 285 285 285 285 285 285 285 285 286 286 286 285 285 285 285 285 285 285 286 285 285 285 285 285 285 285 285 284 283 284 283 283 284 284 285 285 285 285 284 285 286 286 286 287 287 288 288 288 287 288 288 288 288 289 291 294 297 297 297 297 296 296 295 295 295 295 295 295 295 296 295
288 288 288 288 287 287 286 285 285 284 284 284 284 284 284 284 284 284 285 285 285 285 285 285 285 285 285 285 285 285 285 284 284 284 283 282 282 283 283 283 283 282 282 283 282 282 282 283 284 284 284 284 284 284 285 285 285 285 286 286 287 287 287 287 287 287 287 288 288 290 294 296 297 296 296 296 295 295 295 295 295 295 295 295 296
288 287 287 287 287 286 285 284 284 284 284 284 284 284 284 284 284 284 284 285 285 285 285 285 285 285 285 285 285 284 284 283 283 282 281 280 279 280 280 280 280 280 281 281 281 281 281 281 282 283 283 283 283 284 284 285 285 285 285 285 285 286 286 286 286 286 287 287 287 288 289 293 296 297 296 296 296 295 295 295 295 295 295 295 295
287 287 287 286 285 284 284 284 284 284 284 283 283 283 284 284 284 284 284 284 284 284 285 285 285 285 284 284 284 284 283 282 281 280 279 278 278 278 278 277 277 278 278 279 279 280 280 280 281 282 282 282 282 283 284 284 284 285 285 284 284 285 285 285 285 286 286 286 287 287 287 289 292 296 297 296 296 296 295 295 295 295 295 295 295
287 287 286 285 284 284 284 284 284 283 283 283 283 283 283 283 284 284 284 284 284 284 284 284 284 284 284 284 283 282 281 281 280 279 278 277 277 276 276 276 276 276 277 277 278 278 279 279 280 281 281 282 282 282 283 283 283 284 284 284 284 285 285 284 285 285 286 286 286 286 287 287 288 291 295 297 297 296 295 295 295 295 295 295 295
287 286 285 284 283 283 283 283 283 283 283 283 283 283 283 283 283 283 283 283 283 283 283 283 283 283 283 282 281 281 280 279 278 278 278 277 276 276 276 276 275 276 276 276 277 277 278 279 279 280 280 281 281 282 282 282 283 283 284 284 284 284 284 284 285 285 285 285 286 286 286 287 287 288 291 295 297 297 296 295 295 294 294 295 295
286 285 284 283 283 283 283 283 283 283 283 283 283 283 283 283 282 282 282 282 282 282 282 281 281 281 280 280 279 279 278 278 278 277 277 277 277 277 277 276 275 275 275 276 276 276 277 277 278 279 279 280 281 281 281 282 283 283 283 284 284 284 284 284 284 285 285 285 286 286 286 286 286 286 287 291 295 297 296 296 295 295 294 294 294
285 284 283 283 283 283 283 283 283 283 283 283 283 283 283 282 282 281 281 281 281 281 280 279 279 278 278 277 277 277 277 277 277 277 277 277 277 277 276 276 275 274 274 274 275 276 276 277 277 278 278 279 279 280 280 281 282 282 283 283 284 284 285 285 284 285 285 285 286 286 286 285 285 286 286 288 291 294 296 296 295 295 294 294 294
283 283 283 283 283 283 283 283 283 283 283 283 283 282 282 282 281 281 281 280 280 280 279 278 277 276 276 276 276 276 276 276 276 276 276 276 276 275 275 274 273 272 272 273 273 274 275 275 276 276 277 277 277 278 278 279 280 281 281 282 283 283 284 284 285 285 285 285 286 286 286 286 286 286 286 286 288 291 295 296 295 294 294 294 293
283 283 283 283 283 283 282 282 283 283 283 283 282 282 281 281 281 280 280 280 279 279 278 277 276 275 275 275 275 275 275 275 275 275 275 274 274 273 272 272 272 271 272 272 272 273 273 274 274 275 275 276 276 276 277 277 277 278 279 280 281 281 282 283 283 284 284 285 285 286 286 285 286 287 287 286 286 288 291 294 295 294 294 294 293
282 282 282 282 282 282 282 282 283 283 283 282 282 281 281 280 280 280 279 279 278 278 277 276 275 275 275 274 274 274 274 274 275 274 274 273 272 271 271 271 272 272 272 272 273 273 274 274 274 275 275 275 276 276 277 277 278 278 279 279 280 281 281 282 282 283 283 284 284 285 286 285 285 286 286 286 286 286 287 290 293 295 295 294 293
282 282 282 282 282 282 282 282 283 283 283 282 281 281 280 280 279 278 278 278 277 277 276 275 275 274 274 273 273 273 273 274 275 274 273 272 272 272 272 273 273 273 273 273 273 274 274 274 274 275 275 275 276 276 277 277 277 278 278 279 279 280 281 282 283 283 284 284 284 285 286 285 285 285 286 286 286 287 286 287 290 293 294 294 293
282 282 282 282 282 282 282 282 282 282 282 281 280 280 280 278 278 277 277 277 276 276 275 275 274 273 273 273 273 273 273 273 274 273 272 273 273 273 273 273 273 273 274 274 274 275 275 275 275 275 275 275 275 275 275 276 276 276 277 277 278 279 279 281 282 283 284 284 284 285 285 285 285 285 286 286 287 287 287 286 287 290 293 293 293
282 282 282 282 282 282 282 282 282 281 281 281 280 279 279 278 277 277 276 276 276 276 275 274 273 273 273 273 273 273 273 273 273 273 273 273 274 274 274 274 274 274 275 275 275 276 275 276 276 276 276 275 275 275 275 275 275 275 276 276 276 276 277 278 279 281 283 285 285 285 285 285 285 286 286 287 287 287 287 287 287 288 291 293 293
Wind_Speed
18 19 20 17 20 20 16 18 20 20 21 23 23 21 21 19 15 15 16 14 13 13 14 17 17 17 17 16 16 16 15 13 12 11 11 11 12 12 12 12 12 12 13 13 14 15 15 16 16 15 15 15 15 15 15 14 11 8 7 6 7 9 10 10 10 8 8 9 9 7 5 7 7 8 9 8 9 10 8 8 9 9 10 10 10
18 19 20 18 19 19 17 18 22 23 21 20 22 21 21 20 17 18 17 15 14 14 15 17 18 19 19 18 17 18 17 15 14 13 13 12 13 13 13 13 13 13 13 13 14 14 15 16 16 16 15 15 14 14 16 15 12 10 8 9 13 13 9 9 9 10 9 9 10 7 5 9 9 10 11 10 10 11 10 10 11 11 11 10 10
18 19 17 16 18 20 19 16 19 22 19 19 21 20 20 19 18 19 18 15 13 14 15 16 18 20 21 20 19 19 19 18 16 15 14 14 14 14 14 14 14 13 13 13 13 14 15 15 15 16 15 14 13 12 15 16 12 9 11 14 14 10 9 10 8 10 10 8 8 6 6 9 11 11 12 13 13 13 13 13 13 13 12 11 12
17 17 15 14 16 18 18 14 14 17 16 18 19 18 18 17 17 18 18 14 12 13 14 15 17 19 21 21 21 20 20 20 19 18 17 16 15 15 16 16 15 15 14 14 13 14 15 15 15 16 15 15 13 12 13 14 11 10 13 14 10 10 11 10 8 9 10 9 8 7 7 8 11 11 10 12 15 16 16 16 15 15 14 14 14
12 14 13 11 12 14 15 12 12 15 17 17 17 17 16 15 15 17 17 14 12 14 15 15 16 17 20 22 23 22 22 22 21 21 19 18 18 17 17 17 17 16 16 15 14 14 15 15 16 17 17 16 15 14 13 12 11 11 13 13 12 13 12 8 9 11 12 11 10 9 9 9 11 11 10 11 12 14 15 16 16 17 17 17 17
9 10 10 9 10 11 10 8 8 12 15 15 15 14 14 13 14 15 15 14 14 15 15 15 15 15 17 19 22 23 24 24 23 23 22 21 20 20 19 19 18 18 18 17 16 15 15 16 16 17 18 18 17 16 15 14 13 12 13 14 14 13 13 10 9 11 14 15 14 12 11 10 11 11 11 11 10 10 10 12 14 16 19 20 19
8 8 8 9 9 9 8 7 7 9 11 11 12 12 12 11 12 13 14 14 15 16 17 16 15 15 15 16 19 22 24 25 25 25 24 23 23 22 21 20 20 19 19 19 17 17 17 17 17 17 18 18 18 18 17 16 15 14 13 15 13 9 14 15 11 13 19 20 19 16 13 12 13 12 11 11 11 10 9 9 11 13 16 19 19
10 9 9 9 8 8 9 9 8 9 10 9 10 10 10 11 13 13 14 14 15 18 20 20 18 17 16 16 17 19 22 24 26 26 26 25 25 25 24 22 22 21 21 20 19 19 18 18 18 18 18 18 19 19 19 17 16 17 15 16 14 8 15 23 21 22 25 23 23 21 16 13 11 11 10 10 11 11 10 10 11 12 11 13 13
9 9 10 11 12 13 11 10 11 12 11 11 12 12 13 15 15 14 14 15 15 16 18 20 20 20 19 18 17 18 18 20 22 24 26 27 27 27 26 25 25 24 23 22 22 21 20 20 20 20 20 19 20 19 20 19 18 19 18 17 15 11 19 28 26 27 28 26 26 25 20 15 13 12 12 12 11 11 11 10 11 12 11 12 12
7 7 8 9 10 12 12 12 12 12 11 12 13 13 14 16 16 15 16 17 15 14 14 16 18 19 20 20 20 19 19 19 19 20 23 25 27 28 28 28 27 26 25 25 24 24 23 23 23 22 21 21 21 20 21 21 20 19 19 19 17 15 20 23 19 22 28 28 25 25 22 20 19 16 14 13 12 12 12 11 11 11 11 11 12
9 9 9 10 10 11 11 11 12 12 12 12 12 12 13 15 17 18 19 18 17 15 15 16 16 17 18 20 22 23 22 21 21 20 20 22 24 26 28 29 29 28 27 27 26 26 25 25 25 24 24 23 23 22 22 22 22 21 20 20 21 20 19 18 17 20 24 23 20 22 23 23 23 21 18 15 12 12 12 11 11 10 10 9 9
6 7 9 12 13 13 13 12 12 12 13 13 13 13 13 15 17 17 16 16 16 16 16 17 18 18 18 19 21 22 24 24 24 23 22 22 22 23 25 26 28 29 28 28 28 28 27 28 28 27 26 26 25 25 24 24 23 23 22 21 22 22 19 17 19 19 19 20 20 23 24 22 23 20 17 15 13 13 12 11 11 10 10 10 9
6 8 10 10 11 12 13 13 13 13 13 14 16 16 17 17 16 16 17 18 18 17 16 17 19 20 20 21 21 22 23 25 25 25 25 24 24 24 23 24 25 26 27 29 29 29 29 29 30 29 29 28 27 27 26 26 25 24 24 23 23 25 23 20 19 18 20 24 24 24 22 18 18 15 13 14 13 13 13 12 11 11 11 11 11
11 11 11 10 10 11 13 14 15 16 17 17 18 19 19 19 19 20 22 22 21 19 18 19 20 21 22 25 25 25 25 25 26 26 25 24 24 24 23 23 23 23 24 26 27 29 30 31 31 31 31 30 30 29 29 28 27 26 26 26 25 25 26 25 22 18 21 26 25 23 20 14 14 14 13 14 13 13 13 13 12 12 12 12 12
9 10 10 11 12 13 14 15 17 18 18 19 19 20 21 22 23 23 23 23 23 22 21 21 20 21 21 21 23 27 28 25 23 24 24 24 24 25 24 23 22 21 21 21 22 25 27 29 30 32 32 32 32 31 31 30 29 29 28 28 27 27 27 28 27 22 20 24 26 25 20 16 17 17 15 14 14 14 13 13 13 14 14 13 13
8 8 8 9 10 12 13 14 15 15 16 16 16 17 18 19 21 22 22 21 20 21 21 21 21 20 18 17 19 22 22 21 25 27 26 25 24 23 22 22 21 21 21 21 20 20 21 22 24 27 29 31 32 32 32 32 32 31 31 30 29 28 28 29 30 28 24 23 24 24 24 25 25 23 17 15 15 15 15 15 14 14 15 14 14
8 8 9 9 9 9 9 10 11 11 12 12 13 13 14 15 16 17 18 18 19 19 20 20 20 19 17 16 15 15 16 22 29 32 28 25 24 24 24 24 24 25 25 25 24 23 22 21 22 23 23 25 26 28 30 32 34 34 33 33 31 30 30 29 30 31 30 27 25 23 25 29 29 23 17 15 16 15 15 16 15 15 15 14 14
8 8 9 9 10 10 10 10 10 10 11 11 12 12 13 13 14 14 16 17 18 19 19 20 19 18 18 16 14 15 19 23 25 29 33 33 31 29 29 28 29 29 30 30 29 28 28 27 27 27 26 25 24 24 25 28 31 34 35 34 33 32 31 31 31 32 32 32 30 26 24 27 26 22 21 22 24 21 16 16 16 15 16 15 15
8 8 8 8 9 9 9 9 10 10 10 10 10 11 12 12 13 14 15 16 17 18 18 20 20 19 18 18 17 17 19 20 21 24 32 38 38 35 34 34 33 33 33 33 33 32 32 32 32 31 30 29 28 27 25 25 26 29 33 35 35 35 34 33 32 32 33 33 34 32 28 27 25 24 27 29 30 27 19 16 17 16 16 16 15
8 8 8 8 8 8 9 9 9 9 10 10 11 11 11 12 12 13 14 15 16 16 16 18 19 19 19 19 19 20 20 20 22 22 25 34 41 41 39 37 36 36 36 36 35 35 35 34 34 34 33 32 32 31 30 28 27 26 28 30 33 35 35 35 34 33 34 34 35 35 31 29 27 25 29 32 31 30 23 17 17 17 16 17 16
10 10 9 10 10 10 10 10 10 10 10 11 11 12 12 12 12 12 12 13 14 15 15 17 18 18 19 19 20 21 22 22 23 24 24 29 37 41 41 41 41 40 38 38 38 37 37 37 37 36 36 35 34 34 33 32 31 29 27 27 27 30 33 35 36 36 35 35 35 35 34 32 30 27 28 29 28 29 26 20 18 18 17 17 17
10 11 10 11 11 11 11 11 12 12 12 11 11 12 13 14 15 14 14 13 13 13 13 14 16 18 19 20 21 21 21 21 21 22 24 26 31 37 40 42 44 45 43 41 40 39 39 38 38 38 38 38 37 36 36 35 34 33 31 29 27 27 28 30 34 36 36 36 35 35 35 33 33 31 29 27 26 27 27 23 19 19 18 18 18
10 10 10 11 12 12 13 13 13 13 13 13 13 14 14 14 15 15 15 15 14 13 12 12 12 13 15 17 19 20 20 21 21 21 23 25 28 33 37 39 43 46 44 43 42 41 40 39 38 38 38 38 38 38 38 38 37 36 34 33 31 29 27 27 29 33 35 36 36 36 36 35 34 34 33 30 27 27 29 25 21 20 19 18 18
8 9 9 10 11 12 12 12 13 13 14 14 15 15 15 15 14 14 15 14 14 14 14 13 13 12 12 13 14 15 16 18 20 22 23 25 27 32 35 37 42 46 44 43 43 41 41 39 38 36 35 35 36 36 38 39 38 37 36 36 35 32 30 27 27 28 32 35 36 37 37 36 35 34 36 35 29 28 31 27 22 22 21 19 19
9 10 10 11 12 12 12 13 14 14 14 14 14 14 15 15 15 15 16 16 16 16 16 16 16 15 14 13 13 13 13 14 16 18 20 22 25 29 32 33 38 44 44 42 43 42 41 39 37 35 33 33 33 33 34 36 37 37 37 37 36 35 33 30 28 27 28 31 35 37 37 37 36 36 36 38 37 34 32 29 26 24 23 21 20
11 12 12 12 13 13 14 14 14 14 14 14 15 15 16 16 17 17 17 18 18 18 18 17 17 17 17 16 15 14 14 14 15 16 17 19 20 24 28 29 32 37 39 38 39 41 40 38 36 35 33 32 31 30 30 31 33 34 35 36 37 36 35 34 31 29 27 28 31 35 38 38 37 37 37 39 42 42 37 31 28 27 25 23 22
14 14 14 13 14 14 14 14 14 15 15 15 15 15 16 16 17 18 18 19 19 19 19 19 19 19 20 20 19 18 18 18 18 18 19 20 21 21 24 28 32 35 37 38 38 39 38 37 36 34 33 32 31 30 30 30 29 30 31 34 36 35 35 35 34 32 30 28 29 32 36 39 39 38 38 39 41 44 42 36 31 29 27 26 25
13 14 14 14 15 15 16 16 16 17 17 17 17 17 18 18 18 19 19 20 21 21 22 22 22 22 22 22 22 22 21 22 22 23 22 23 23 23 23 25 28 33 37 39 41 41 40 38 37 36 34 33 33 32 31 32 31 30 30 32 34 34 34 34 34 34 33 31 30 30 32 37 40 39 39 40 40 42 44 42 38 35 32 30 30
13 14 15 15 16 17 18 18 19 19 20 20 20 20 20 21 21 21 22 22 22 23 24 24 25 25 25 25 26 25 25 25 25 26 26 27 26 26 26 25 25 28 32 36 42 44 42 40 39 38 36 35 35 34 33 33 32 32 33 34 34 34 34 34 34 34 34 33 31 30 30 33 38 40 40 40 41 41 42 42 42 40 39 38 36
14 14 15 16 17 18 19 19 20 21 22 22 23 23 23 23 23 24 24 25 25 25 26 27 27 28 28 28 29 29 29 28 28 29 29 30 30 29 29 29 28 29 30 33 41 44 43 43 42 41 40 38 36 36 35 34 33 33 34 35 36 36 35 35 35 35 35 34 33 31 30 31 34 39 40 41 42 42 42 41 41 40 40 40 39
14 15 16 17 18 18 19 20 21 22 23 24 25 25 26 27 27 28 28 29 30 30 29 30 31 31 32 32 32 32 32 32 32 33 32 32 33 33 33 32 31 32 32 33 39 45 45 44 46 45 43 42 40 38 38 36 34 33 33 34 35 35 35 36 37 37 36 35 34 32 31 30 31 34 38 41 42 43 43 42 41 40 39 39 39
17 17 18 18 19 19 19 20 21 21 22 23 24 25 26 27 28 29 30 31 32 33 33 33 34 35 36 36 35 35 35 36 36 36 37 36 37 36 36 36 35 36 35 34 40 48 48 45 47 48 45 45 45 44 43 41 37 35 34 34 34 34 34 35 36 37 38 37 37 35 33 31 31 31 34 37 41 43 44 43 43 41 40 39 39
18 19 19 20 20 21 21 21 21 22 22 22 23 24 25 26 27 28 30 31 32 33 34 34 35 36 38 38 39 40 40 40 40 40 40 40 40 40 40 40 40 39 38 38 41 49 51 47 47 50 48 47 48 47 45 45 42 39 37 37 35 35 35 35 35 36 37 38 39 39 37 34 33 32 32 34 37 40 42 44 44 43 42 40 39
23 23 24 24 24 25 25 25 26 26 27 27 28 29 29 30 31 31 32 33 34 35 35 36 36 37 38 39 40 42 43 44 45 45 45 44 42 43 42 42 43 43 42 41 42 47 53 52 49 50 50 49 50 50 48 47 47 44 42 40 38 37 37 36 36 36 35 36 38 40 40 39 36 34 34 34 34 36 38 41 43 44 44 43 41
27 28 29 29 29 29 29 29 29 29 30 31 32 33 34 35 36 37 37 38 38 39 39 39 39 40 40 41 42 43 44 45 46 47 48 48 47 46 45 44 44 45 43 43 43 47 53 55 52 50 51 50 51 52 51 50 50 48 46 45 41 39 38 37 37 37 35 35 36 37 40 41 41 39 37 36 35 36 36 38 40 42 44 45 44
30 30 31 31 31 31 31 31 32 32 33 34 35 36 37 38 40 40 41 41 42 42 43 43 44 44 45 45 45 45 45 46 46 47 47 49 49 50 50 49 47 46 45 44 44 46 51 55 55 53 52 52 52 53 52 52 52 51 50 49 46 43 41 39 39 39 37 36 35 36 37 40 42 43 41 39 38 38 37 38 39 41 42 44 45
31 32 32 32 31 32 32 32 33 34 35 36 38 39 40 41 42 43 43 44 44 44 45 45 47 48 48 49 49 49 49 50 50 49 48 48 49 50 52 53 52 50 48 46 46 46 48 53 57 56 53 53 53 53 53 52 53 54 53 52 50 48 45 42 40 40 38 37 36 36 36 38 40 43 44 43 41 41 40 40 41 41 41 42 44
33 33 33 33 32 32 32 33 34 36 37 39 40 42 43 43 44 44 44 45 45 45 46 47 48 49 50 51 52 51 52 52 53 53 52 50 50 50 51 52 52 51 51 51 48 46 47 51 55 55 54 52 52 53 53 51 51 53 55 55 54 52 49 47 44 41 39 38 36 35 35 36 38 40 43 45 44 43 43 43 43 43 42 41 41
35 35 35 34 33 33 33 34 36 37 39 40 42 43 44 44 44 44 45 45 46 46 47 48 48 49 50 51 52 53 52 53 53 53 52 51 50 50 49 49 49 49 50 51 49 45 45 48 52 54 53 51 48 50 52 49 48 51 53 55 56 54 51 50 48 44 40 38 38 37 36 35 36 38 41 44 46 46 45 45 45 45 44 44 42
37 36 35 34 33 34 35 36 38 39 40 42 43 43 44 44 44 45 45 46 47 48 48 49 49 49 50 51 52 52 52 52 52 50 49 47 46 47 47 44 43 44 46 48 48 47 46 48 50 52 51 49 46 47 48 46 47 51 52 49 51 55 54 51 49 47 44 41 40 38 37 36 36 37 39 43 46 48 48 47 47 47 46 46 44
37 36 34 34 34 35 37 38 39 40 42 43 43 43 43 44 44 45 46 47 48 49 49 50 50 50 51 51 51 51 51 50 49 47 45 43 41 42 43 40 39 41 43 44 45 46 46 47 49 50 49 48 46 44 44 44 44 48 49 45 46 53 54 52 52 51 48 46 43 41 39 38 37 37 38 41 45 47 49 49 49 49 48 47 46
36 34 34 34 36 37 38 39 41 42 42 42 42 42 42 43 45 46 47 48 48 49 50 51 51 51 51 51 51 50 49 48 46 45 43 41 39 38 37 36 35 36 38 40 41 43 44 45 48 49 48 50 49 44 42 44 42 42 44 43 44 49 51 51 54 56 51 45 43 43 41 37 36 38 39 40 42 45 48 51 51 50 48 47 47
34 34 34 36 37 38 39 40 41 42 42 42 41 42 42 43 45 46 47 48 48 49 50 51 52 52 51 51 50 49 48 46 44 43 41 40 38 37 35 34 33 32 34 37 40 41 41 42 45 46 46 49 51 48 44 43 41 39 39 40 41 44 45 45 49 55 53 46 40 41 42 38 36 38 40 40 40 41 45 50 52 51 49 47 47
34 34 36 37 38 39 39 40 41 42 42 41 41 42 43 44 44 45 46 48 48 49 49 49 50 50 50 49 49 47 46 44 42 41 40 38 36 35 34 33 31 30 30 32 36 37 39 41 44 46 46 46 48 49 46 43 40 38 37 38 39 40 43 43 44 50 52 47 40 41 44 43 39 38 40 41 40 40 41 44 48 50 50 49 47
34 36 37 38 38 39 40 41 41 42 42 41 41 42 43 44 44 44 45 46 47 48 48 47 47 47 47 47 47 46 44 42 41 39 38 37 35 33 33 32 30 27 26 26 29 31 34 37 41 46 47 45 44 46 44 40 37 36 36 37 36 36 39 41 43 47 48 45 41 42 47 47 42 40 42 42 40 39 39 39 42 46 49 50 48
36 37 38 38 38 39 40 41 41 42 41 41 42 42 43 43 43 43 44 46 46 46 46 46 46 45 45 45 45 45 43 41 39 38 36 35 33 32 31 30 29 27 26 25 26 28 30 33 37 43 46 45 45 48 48 44 41 40 40 41 40 40 41 43 45 47 46 44 41 42 47 51 46 42 45 44 41 40 39 38 38 40 43 46 47
37 38 38 38 38 40 40 40 41 41 41 41 42 42 43 43 43 43 44 45 45 46 45 45 44 44 43 43 43 43 42 40 37 34 32 31 30 31 31 31 31 30 29 29 28 28 29 31 34 39 42 42 42 45 47 46 44 43 42 43 44 44 45 47 49 50 50 48 44 41 47 54 49 44 47 47 43 42 41 39 37 37 38 41 43
37 37 37 38 39 40 40 40 41 41 41 41 41 42 42 42 42 43 44 44 44 44 44 43 43 42 42 41 41 40 39 37 33 29 27 27 29 32 34 35 35 35 35 33 30 28 29 31 33 36 39 40 39 39 40 40 41 41 40 42 45 45 46 48 50 51 51 50 47 44 46 53 52 47 49 49 45 43 43 41 39 36 36 38 40
37 36 36 37 38 39 39 39 40 41 41 41 41 42 41 41 41 42 42 42 42 43 42 42 41 41 40 38 37 36 36 33 30 28 27 28 31 35 37 38 38 38 37 36 33 30 30 32 33 35 37 37 36 36 37 37 37 36 36 41 44 44 45 47 48 49 50 48 47 43 44 50 53 51 50 50 46 44 44 42 41 38 36 36 37
36 35 36 37 38 38 38 38 39 41 42 41 41 41 41 40 39 40 40 40 41 41 41 40 39 38 37 36 33 33 33 31 30 29 29 31 34 36 37 38 39 39 38 37 36 36 35 35 36 36 36 37 36 36 36 36 35 32 33 39 42 41 42 45 47 49 50 48 46 43 43 47 51 50 48 46 46 46 45 43 42 40 38 36 36
35 35 36 37 37 37 37 38 39 40 41 41 40 40 40 39 37 37 37 38 40 40 40 39 38 37 36 35 32 30 30 30 30 30 31 31 33 34 35 36 39 41 39 38 39 40 40 39 39 39 39 39 39 39 39 39 37 35 34 38 41 41 43 47 49 48 48 46 43 42 43 46 48 48 46 42 42 45 45 43 42 41 40 38 37
Wind_Direction
261 266 266 262 262 267 265 254 251 259 268 273 280 290 299 304 307 312 313 303 292 282 272 263 259 259 261 264 267 269 271 273 277 281 285 289 293 296 299 304 309 314 318 321 324 326 329 330 331 334 334 332 331 327 326 329 327 316 300 287 292 299 306 309 304 291 276 275 268 257 279 274 259 263 255 252 251 236 232 236 234 234 224 221 230
266 273 267 267 275 277 272 260 252 252 260 275 283 292 301 306 309 311 308 302 296 288 280 271 264 259 257 259 262 266 268 270 272 274 278 280 283 287 291 295 298 304 308 313 317 320 324 325 326 328 329 329 325 320 320 324 319 307 296 290 298 305 305 304 305 299 286 284 276 251 264 279 263 261 255 247 250 234 223 230 228 226 224 221 222
263 273 274 266 267 270 271 263 255 254 259 277 285 291 300 304 306 307 304 301 300 296 290 281 272 264 258 257 258 262 265 267 268 270 272 273 276 279 283 286 289 294 298 303 308 312 315 318 319 320 322 321 315 309 313 319 315 297 292 296 303 308 304 302 300 297 298 301 295 262 247 270 269 271 264 251 252 244 232 234 230 224 226 224 222
255 262 275 270 258 263 272 263 259 267 272 281 286 291 298 300 301 303 301 301 306 306 300 290 280 271 264 259 257 259 262 264 265 266 267 269 271 273 275 278 281 285 289 293 297 302 306 309 311 311 313 313 308 301 302 307 305 292 291 294 297 299 294 290 284 293 308 315 314 292 265 267 269 273 273 258 252 249 243 243 240 228 224 225 224
256 259 269 275 268 269 276 268 260 270 275 280 285 289 294 297 299 300 301 305 314 315 310 302 291 280 271 265 260 260 261 263 264 264 265 266 266 267 269 272 275 278 282 284 288 293 298 301 304 306 307 309 307 303 297 293 293 291 289 291 303 304 292 277 278 298 315 319 320 308 288 271 265 269 275 271 261 257 252 248 245 236 231 230 228
268 268 273 279 274 269 276 277 268 270 271 272 277 284 289 292 295 298 303 311 318 318 315 312 306 295 283 274 267 264 263 265 265 265 264 264 264 264 264 267 270 273 276 278 281 284 289 293 297 301 303 305 306 304 301 292 288 286 279 284 300 309 305 294 275 289 308 314 317 313 299 279 268 268 272 276 272 269 266 255 248 242 237 233 232
262 263 269 273 274 273 274 267 259 262 265 268 275 283 287 292 298 303 309 314 315 313 313 313 314 312 301 287 277 270 267 266 266 267 267 265 265 265 265 265 267 269 271 274 277 279 281 285 289 293 296 300 302 302 300 294 287 281 274 279 291 306 296 285 266 278 297 305 309 309 302 286 274 272 273 276 275 270 268 261 250 243 241 235 234
235 239 247 249 251 257 256 256 261 263 267 273 278 281 286 291 296 302 308 309 307 308 309 307 307 310 308 299 288 281 275 271 270 269 268 267 267 267 267 266 266 266 268 270 272 273 275 279 281 285 289 293 296 298 296 293 286 278 273 273 283 294 275 269 269 279 289 297 302 304 300 288 277 274 270 270 273 270 264 263 254 246 248 236 231
236 242 251 249 249 251 247 254 264 258 256 262 264 268 276 279 280 289 296 295 297 304 308 304 301 300 302 302 297 292 288 283 278 273 270 268 267 267 267 266 266 266 267 269 269 270 272 274 276 278 283 286 289 292 292 292 288 281 275 267 270 278 269 270 273 275 283 292 295 297 297 290 284 277 269 267 270 270 264 264 259 251 254 240 231
284 281 282 278 274 273 267 268 273 269 269 273 273 274 277 277 276 278 281 279 282 294 302 302 299 296 295 298 298 297 295 292 287 281 276 272 269 268 268 267 267 267 267 268 269 270 270 271 273 274 277 280 283 286 287 289 289 285 278 266 259 256 261 270 272 270 282 290 289 289 293 293 289 283 275 269 266 268 266 265 263 257 258 250 242
301 294 291 290 295 303 300 297 299 296 293 290 285 282 278 278 277 275 274 273 276 287 296 296 299 299 297 296 296 296 295 294 291 287 283 278 275 272 270 270 270 269 269 270 270 271 271 271 272 273 274 275 278 280 282 284 286 286 280 270 259 252 257 265 265 271 281 283 279 284 290 292 290 285 278 270 263 266 268 266 267 264 260 256 251
314 298 286 282 285 297 304 305 303 299 298 298 299 296 291 289 287 284 283 285 288 294 297 295 296 298 298 297 295 294 293 292 292 291 288 285 284 281 277 274 272 272 271 272 272 272 272 272 272 272 272 273 274 276 277 279 282 283 281 274 263 258 259 261 266 279 282 274 275 284 288 288 286 282 272 265 261 264 268 266 265 263 261 259 256
293 286 286 288 287 290 293 295 297 299 300 299 298 296 293 292 290 287 288 290 292 293 294 295 295 295 296 294 291 291 292 292 292 291 291 290 290 289 286 282 279 277 275 273 272 272 272 273 273 273 272 272 272 273 275 276 278 280 279 277 269 262 259 256 262 275 276 273 277 283 285 282 278 274 262 259 260 262 264 263 262 262 259 260 259
274 268 270 277 283 288 291 292 294 296 296 292 289 288 288 289 289 287 287 288 289 290 291 293 296 298 300 297 294 292 290 290 291 291 292 292 293 293 291 290 288 284 279 276 274 272 272 273 273 274 274 273 273 273 273 273 275 277 277 276 273 268 263 258 257 260 267 273 277 282 284 274 270 270 262 260 261 259 261 260 261 261 258 258 258
295 282 274 271 274 278 282 283 284 286 288 288 286 285 286 287 290 291 292 292 292 291 291 294 295 297 301 302 302 301 298 296 293 289 290 291 292 294 293 291 290 286 282 281 280 277 276 275 274 274 274 274 274 274 273 273 273 274 275 275 273 271 268 264 260 256 258 268 276 281 279 267 274 279 265 260 263 260 259 258 260 262 260 257 256
343 331 314 301 293 291 289 288 287 287 288 288 288 287 286 287 289 292 293 295 296 295 294 296 296 295 296 300 305 307 306 304 299 293 291 289 289 289 288 287 285 283 283 285 284 282 281 281 280 278 276 276 275 274 273 273 272 272 273 273 273 272 270 267 264 260 255 256 264 271 272 271 280 284 269 257 261 260 259 259 259 262 263 259 255
1 354 345 340 334 329 325 320 317 314 311 309 305 300 296 294 293 293 293 294 295 295 294 295 297 299 300 299 302 302 299 302 303 299 294 291 289 286 285 285 283 281 282 283 283 282 282 284 285 285 283 281 279 277 274 272 271 271 272 272 272 271 270 269 266 264 259 255 253 256 265 272 279 279 263 256 265 262 258 260 259 260 264 262 256
7 359 352 348 345 344 343 341 339 336 334 331 325 318 311 304 300 296 293 292 292 292 292 293 296 301 302 298 294 291 293 300 304 301 297 294 292 290 288 286 285 283 281 282 282 280 280 282 284 284 284 284 283 281 278 274 271 270 270 271 272 272 271 269 267 265 262 259 256 251 252 263 273 270 258 269 283 276 259 257 260 259 262 261 255
15 8 1 354 349 345 343 343 343 342 342 339 335 332 327 320 314 306 298 293 291 290 290 291 292 295 297 297 294 290 292 296 298 300 301 299 296 294 293 292 290 288 285 284 282 280 279 280 281 282 282 282 282 280 279 277 274 271 269 269 271 271 271 270 268 265 264 262 261 258 250 248 258 263 262 272 284 282 266 254 259 259 258 259 255
29 26 20 12 6 359 356 353 349 348 347 345 345 345 342 337 330 320 310 303 299 296 294 292 292 292 291 293 295 295 295 295 296 298 301 300 298 297 297 295 293 291 289 288 285 283 281 280 280 280 280 280 279 279 278 277 276 273 271 270 271 271 271 270 269 267 265 262 261 262 256 247 246 254 262 268 277 280 269 251 255 259 255 256 255
32 32 29 25 22 18 16 11 9 9 5 4 2 358 356 353 350 346 337 325 315 308 303 298 297 296 294 293 293 294 295 295 297 297 297 298 298 298 299 298 296 294 293 292 290 288 285 283 282 281 280 279 278 278 277 276 274 273 272 272 273 273 272 270 269 268 266 264 262 261 260 252 242 242 254 263 268 274 272 258 251 256 255 254 252
23 23 20 20 19 17 15 14 15 16 14 13 10 6 5 3 2 2 360 354 345 334 324 314 306 302 300 298 297 297 296 296 296 296 296 295 295 296 298 299 299 298 297 297 295 293 291 288 285 284 282 281 279 278 277 277 276 273 271 271 272 274 275 272 269 268 267 266 264 261 260 255 246 239 242 253 257 262 272 266 251 253 256 253 250
12 10 8 11 11 9 9 10 10 9 7 7 6 6 7 7 5 3 1 1 0 357 352 341 329 320 313 308 305 303 302 301 299 297 296 296 297 297 297 298 297 297 298 299 298 296 295 293 291 289 286 283 281 278 277 277 276 276 274 271 271 272 275 277 274 270 267 266 265 262 259 256 251 242 236 242 247 253 266 265 251 253 257 254 251
4 360 0 3 4 3 2 1 0 360 1 2 2 3 2 1 360 358 358 356 355 356 355 352 348 345 340 334 328 321 315 308 303 300 297 296 296 296 297 299 297 296 298 299 298 298 297 297 296 294 292 289 285 282 278 276 275 276 276 274 272 271 272 276 278 275 270 266 264 263 261 256 253 247 238 236 236 244 258 260 253 255 257 255 254
354 353 355 357 357 355 353 353 353 353 355 354 353 352 350 349 348 348 348 346 346 346 347 346 346 346 345 344 344 341 336 327 319 314 308 303 300 298 298 298 296 296 300 301 301 301 300 300 301 301 299 297 294 289 284 280 275 274 275 275 273 272 271 272 275 278 276 271 266 262 262 258 254 250 243 236 232 236 245 249 251 255 255 256 256
352 354 356 355 353 350 349 348 347 345 344 342 341 340 339 338 338 337 338 339 339 338 337 337 336 336 336 334 335 337 336 333 329 328 326 321 317 314 311 308 303 302 304 305 305 304 304 306 308 307 305 303 302 299 295 290 283 277 275 274 273 272 271 271 270 274 277 277 272 266 262 260 256 251 246 240 237 238 240 242 246 250 253 256 257
349 350 351 349 347 347 345 343 341 339 336 334 332 331 330 329 329 329 329 330 330 330 330 329 328 328 328 327 328 330 330 328 326 326 326 324 324 324 322 319 316 313 313 311 309 308 309 311 311 311 312 311 309 307 302 298 293 286 280 275 273 272 271 271 269 270 273 275 276 272 265 261 257 253 249 245 243 243 244 244 243 245 249 253 253
339 338 336 336 336 336 336 335 335 334 331 330 328 327 326 324 323 321 320 320 320 321 322 322 322 322 322 322 321 323 323 323 322 322 321 320 320 320 319 318 316 314 314 313 311 310 311 313 313 313 316 316 314 311 307 302 298 294 288 282 277 273 270 269 268 267 269 270 273 274 269 263 259 254 251 249 246 246 247 247 246 246 246 246 247
324 324 323 323 323 323 323 323 323 322 322 321 320 321 321 320 319 318 317 315 315 315 315 315 315 315 315 316 316 316 317 316 316 316 315 314 314 313 312 312 309 306 306 307 307 308 309 310 312 312 313 314 313 313 310 306 302 297 291 287 283 279 274 270 267 265 265 266 268 271 271 266 261 256 252 250 249 248 249 250 250 251 250 250 251
315 315 315 315 315 315 315 315 314 314 314 315 315 315 315 314 314 314 313 312 311 312 312 311 311 310 310 310 310 311 311 310 310 309 309 309 308 307 306 305 302 298 297 296 298 302 305 306 308 309 310 310 310 309 307 304 303 300 295 290 286 282 279 275 271 267 263 263 264 266 269 269 265 260 255 252 250 249 250 250 252 253 253 254 254
317 316 315 315 314 314 313 313 313 313 313 314 314 313 313 312 312 311 311 310 309 309 309 308 308 308 307 307 307 308 307 307 306 305 305 304 303 303 302 300 298 295 294 291 290 295 300 302 304 305 306 307 307 304 302 302 302 301 299 295 290 285 280 276 273 270 267 264 263 263 265 267 267 264 260 255 252 251 251 251 252 252 253 253 253
321 319 317 316 314 313 313 312 311 311 310 310 308 307 307 306 306 306 306 306 305 305 305 305 306 306 305 306 305 306 305 304 304 303 302 302 301 300 299 297 296 293 292 288 285 289 295 297 298 300 301 303 302 301 301 301 301 300 299 297 296 292 285 278 274 271 269 266 264 263 263 264 265 266 264 260 256 253 252 252 253 253 253 253 252
322 319 318 316 315 315 314 313 312 311 310 308 306 304 303 302 301 301 301 301 300 301 301 301 302 303 303 304 304 305 304 303 302 301 300 299 298 298 297 296 294 293 291 288 286 288 292 292 293 295 297 298 297 297 299 300 299 300 298 296 296 295 292 288 280 274 271 269 266 264 263 263 263 264 265 264 261 257 254 253 254 254 254 254 252
328 325 323 321 320 319 318 317 316 314 313 312 311 309 308 307 306 305 305 304 303 302 302 301 301 301 301 301 302 302 302 302 301 301 300 299 298 296 295 294 293 292 290 289 288 288 289 290 290 291 292 293 293 294 295 296 297 297 296 295 295 294 293 291 288 282 275 271 268 266 265 263 263 263 264 265 264 262 259 257 255 254 254 254 254
328 327 324 322 321 319 318 317 316 315 314 313 312 312 311 311 310 309 309 308 307 306 305 304 304 303 303 302 301 301 301 300 299 299 300 300 299 297 295 293 292 291 290 289 289 288 288 289 289 288 288 288 289 290 291 292 293 293 293 294 294 292 291 290 289 287 283 277 271 266 264 263 263 263 262 263 263 263 262 260 258 255 253 253 253
326 324 322 320 319 317 316 316 315 315 314 313 313 313 312 312 311 310 310 309 308 308 307 307 307 306 306 304 303 303 302 300 298 298 298 298 298 298 297 295 293 291 288 287 286 286 287 288 287 287 287 287 286 286 287 288 289 290 290 291 290 290 289 289 287 287 287 284 279 271 265 262 261 262 261 261 261 262 262 261 260 258 255 252 251
322 321 319 317 316 315 314 314 313 313 313 313 313 313 313 312 311 310 309 308 308 307 307 307 308 308 308 307 306 305 305 303 300 299 297 295 294 294 294 294 294 293 291 288 285 283 283 284 285 286 286 286 285 284 283 285 286 287 287 287 287 287 287 287 287 287 288 288 286 280 272 265 260 259 260 260 260 260 261 262 261 260 259 255 251
320 319 317 315 314 313 312 312 312 312 313 312 312 312 311 311 310 309 308 308 308 307 307 307 307 308 307 307 306 306 305 303 301 300 299 296 294 291 289 289 290 291 292 290 289 285 282 281 282 283 284 284 285 284 283 283 283 284 285 285 285 285 286 287 287 287 287 286 285 283 279 272 264 259 257 257 258 259 259 261 262 261 262 259 253
319 317 316 314 313 312 311 312 311 311 311 311 311 311 310 309 309 308 308 307 307 307 307 307 306 306 305 305 304 304 303 302 301 301 300 299 297 294 292 289 288 288 287 287 289 288 286 283 281 281 282 283 284 283 283 283 283 281 281 283 284 285 286 286 286 285 285 284 283 282 280 276 270 263 258 255 255 256 256 258 259 260 261 261 257
317 315 314 312 311 310 311 311 310 310 310 309 310 310 309 309 309 308 308 308 307 307 307 306 306 305 304 304 303 302 301 301 300 300 299 298 297 295 293 291 289 287 285 283 284 285 286 286 284 283 283 283 283 282 282 283 282 280 280 283 285 284 284 285 284 284 284 283 281 280 278 276 273 267 261 256 253 252 253 255 256 257 259 260 259
314 312 310 309 309 309 309 309 309 309 309 310 310 311 310 310 310 309 309 309 308 308 307 306 306 305 304 303 302 301 301 301 300 300 299 298 296 294 292 290 287 285 284 283 282 282 282 283 283 284 285 284 283 283 282 281 281 281 281 283 283 281 282 285 284 282 282 281 281 280 277 275 274 272 266 260 254 251 252 253 254 255 256 258 259
310 309 308 308 308 308 308 308 308 309 309 310 311 312 312 312 312 311 310 310 310 309 308 308 307 306 305 304 303 303 303 303 302 301 300 298 295 293 291 289 287 284 283 281 280 279 280 280 281 282 283 283 282 282 281 280 280 281 281 282 282 282 283 284 283 281 281 281 281 280 278 276 275 273 269 265 260 254 252 251 252 254 256 257 257
307 306 307 307 308 307 307 308 308 309 309 311 312 313 314 315 314 313 312 312 311 311 310 309 307 307 306 306 306 306 305 305 304 302 301 299 297 294 291 287 284 280 278 277 277 277 278 279 279 279 280 280 280 280 281 281 282 281 281 281 282 282 282 283 282 280 281 283 282 281 279 277 276 273 270 268 266 260 254 251 252 254 257 258 258
305 305 306 306 307 307 308 308 309 309 310 312 314 315 315 316 315 314 313 313 312 311 310 309 309 309 309 309 309 308 307 307 306 304 303 302 301 299 297 293 287 280 275 275 275 276 276 275 275 275 274 275 278 279 280 282 283 283 283 281 279 279 279 279 280 278 279 282 284 283 280 277 275 273 269 266 266 265 260 256 253 254 257 258 259
304 305 306 306 307 308 308 309 309 310 311 313 315 316 316 316 316 315 313 312 311 311 310 310 310 310 311 311 311 310 310 310 309 308 309 309 308 305 302 300 295 288 282 278 276 274 274 273 272 271 269 272 275 276 277 279 282 282 282 280 279 278 277 276 276 276 278 280 282 283 281 278 275 273 268 264 263 265 263 260 256 255 256 257 259
304 306 306 307 308 309 309 310 310 310 312 314 316 316 316 316 316 314 312 311 312 312 311 311 311 312 312 312 312 312 312 311 311 313 315 316 313 309 305 302 299 295 290 286 281 276 271 267 267 268 268 270 273 273 273 274 275 276 278 278 277 276 275 275 275 275 275 275 276 278 278 276 274 272 268 264 263 263 262 261 259 256 256 257 258
305 306 307 308 309 310 310 311 311 311 313 316 317 317 316 317 316 314 313 313 313 313 313 313 312 313 313 312 312 313 312 313 315 319 320 317 312 307 303 302 303 302 299 296 290 285 281 277 275 275 276 277 277 276 276 276 275 273 275 277 277 277 275 273 272 271 270 269 269 269 270 271 271 270 269 267 266 264 262 261 261 259 256 256 257
306 307 308 309 310 310 311 311 311 312 314 317 317 317 317 318 316 315 315 315 315 314 314 314 313 313 312 312 312 312 311 313 317 320 321 315 306 302 302 304 304 303 302 300 293 284 281 281 279 280 281 282 283 283 282 282 279 277 277 277 277 276 275 273 271 269 268 267 264 262 263 267 268 268 270 270 269 266 264 263 262 260 257 255 255
306 307 308 309 310 310 311 312 312 313 315 317 318 318 319 319 318 317 317 316 315 314 313 313 312 312 312 311 311 311 311 314 319 322 320 310 301 300 301 301 300 299 299 299 295 290 288 287 283 280 280 280 281 281 281 281 281 281 280 277 274 273 273 274 272 270 268 266 264 261 260 262 264 265 268 269 269 267 266 264 261 259 258 257 254
306 307 308 309 310 310 312 313 314 314 315 317 319 319 320 320 319 318 317 315 314 313 314 313 312 311 311 310 311 312 312 315 318 316 308 299 296 296 296 295 295 295 296 299 300 300 300 298 295 292 289 288 286 284 284 284 282 281 277 274 272 273 274 273 271 271 270 267 263 260 257 259 261 262 263 266 267 267 265 264 262 259 258 257 255
306 308 309 309 310 311 312 313 314 315 316 318 320 320 321 322 321 319 316 314 313 313 313 313 312 311 310 309 311 313 313 314 315 308 298 293 293 293 292 292 291 292 297 302 302 302 302 300 298 297 296 295 294 292 291 290 287 283 279 275 274 274 273 271 270 271 271 268 264 258 254 256 259 259 258 259 261 264 265 264 262 260 258 257 256